Tracking 31027 objects as of 19-Jul-2025
HD Live streaming from Space Station
objects crossing your sky now

TITAN 3C TRANSTAGE DEB

Track TITAN 3C TRANSTAGE DEB now!


NORAD ID: 43282
Int'l Code: 1969-013C
Perigee: 37,220.0 km
Apogee: 39,733.1 km
Inclination: 1.4 °
Period: 1,575.3 minutes
Semi major axis: 44847 km
RCS: Unknown
Launch date: February 9, 1969
Source: United States (US)
Launch site: AIR FORCE EASTERN TEST RANGE (AFETR)

Note: This is SATELLITE DEBRIS
Your satellite tracking list
MOLNIYA 1-86
Track 1 satellite(s)




NASA's NSSDC Master Catalog

Two Line Element Set (TLE):
1 43282U 69013C   25198.88637177 -.00000155  00000-0  00000-0 0  9992
2 43282   1.3651  48.0160 0280177 240.2879 116.8648  0.91410251 24534
Source of the keplerian elements: AFSPC